Terminal Aerodrome Forecast
Issued by NWS Missoula, MT

Home | Current Version | Previous Version | Text Only | Print | Product List | Glossary On
Versions: 1 2 3 4 5 6 7 8 9 10 11 12 13 14 15 16 17 18 19 20 21
000
FTUS45 KMSO 260219 AAA
TAFMSO
TAF AMD
KMSO 260219Z 2602/2624 VRB05KT P6SM SKC
     FM260800 00000KT 2SM BR SCT004 BKN025
     FM261200 00000KT 1/2SM FG SCT001 BKN004
     FM261500 VRB02KT 3SM BR SCT004
     FM261800 VRB03KT P6SM SCT010=

USA.gov is the U.S. government's official web portal to all federal, state and local government web resources and services.